When you browse on this site, cookies collect data to enhance your experience and personalize the content and advertising you see.
Visit our Privacy Policy to learn more. By continuing to use the site, you agree to this use of cookies and data.
  • en Suisse
  • Liste des pays
  • À 7 jours
  • Température de l'eau
  • Carte satellitaire
  • Carte météo
  • Widgets météo
  • user-avatar
    Se connecter

    Météo par heure à Nordhausen

    Ce jour, 22 Juillet, Lundi

    Heure Température Précipitation Vent Pression Humidité
    00:00 +15°C° 0 mm 0 m/s 746 mmHg 89%
    01:00 +15°C° 0 mm 0 m/s 746 mmHg 89%
    02:00 +15°C° 0 mm 0 m/s 746 mmHg 90%
    03:00 +14°C° 0 mm 0 m/s 746 mmHg 90%
    04:00 +14°C° 0 mm 0 m/s 746 mmHg 91%
    05:00 +15°C° 0 mm 0 m/s 746 mmHg 87%
    06:00 +16°C° 0 mm 0 m/s 746 mmHg 84%
    07:00 +18°C° 0 mm 0 m/s 746 mmHg 78%
    08:00 +21°C° 0 mm 1 m/s 746 mmHg 72%
    09:00 +23°C° 0 mm 2 m/s 746 mmHg 65%
    10:00 +24°C° 0 mm 3 m/s 746 mmHg 58%
    11:00 +24°C° 0 mm 3 m/s 746 mmHg 59%
    12:00 +24°C° 0 mm 3 m/s 746 mmHg 59%
    13:00 +25°C° 0 mm 3 m/s 746 mmHg 54%
    14:00 +24°C° 0 mm 3 m/s 746 mmHg 60%
    15:00 +23°C° 0 mm 2 m/s 746 mmHg 66%
    16:00 +22°C° 0 mm 1 m/s 746 mmHg 71%
    17:00 +22°C° 0 mm 1 m/s 746 mmHg 71%
    18:00 +23°C° 0 mm 1 m/s 746 mmHg 71%
    19:00 +23°C° 0 mm 1 m/s 746 mmHg 71%
    20:00 +22°C° 0 mm 1 m/s 746 mmHg 72%
    21:00 +20°C° 0 mm 1 m/s 746 mmHg 74%
    22:00 +19°C° 0 mm 1 m/s 746 mmHg 75%
    23:00 +19°C° 0 mm 1 m/s 746 mmHg 77%

    Demain, 23 Juillet, Mardi

    Heure Température Précipitation Vent Pression Humidité
    00:00 +18°C° 0 mm 1 m/s 746 mmHg 78%
    01:00 +18°C° 0 mm 1 m/s 746 mmHg 80%
    02:00 +18°C° 0 mm 1 m/s 746 mmHg 82%
    03:00 +16°C° 0 mm 1 m/s 746 mmHg 84%
    04:00 +16°C° 0 mm 1 m/s 746 mmHg 86%
    05:00 +19°C° 0 mm 1 m/s 746 mmHg 82%
    06:00 +20°C° 0 mm 1 m/s 746 mmHg 78%
    07:00 +22°C° 0 mm 1 m/s 746 mmHg 74%
    08:00 +23°C° 0 mm 1 m/s 746 mmHg 68%
    09:00 +25°C° 0 mm 1 m/s 746 mmHg 63%
    10:00 +27°C° 0 mm 1 m/s 746 mmHg 57%
    11:00 +28°C° 0 mm 1 m/s 746 mmHg 55%
    12:00 +29°C° 0 mm 1 m/s 746 mmHg 52%
    13:00 +30°C° 0 mm 1 m/s 745 mmHg 50%
    14:00 +30°C° 0 mm 1 m/s 745 mmHg 50%
    15:00 +30°C° 0 mm 1 m/s 745 mmHg 50%
    16:00 +30°C° 0 mm 1 m/s 745 mmHg 50%
    17:00 +29°C° 0 mm 1 m/s 744 mmHg 56%
    18:00 +28°C° 0 mm 1 m/s 744 mmHg 62%
    19:00 +27°C° 0 mm 1 m/s 744 mmHg 68%
    20:00 +25°C° 0 mm 1 m/s 744 mmHg 71%
    21:00 +23°C° 0 mm 1 m/s 744 mmHg 75%
    22:00 +21°C° 0 mm 1 m/s 744 mmHg 79%
    23:00 +21°C° 0 mm 1 m/s 744 mmHg 79%

    Après-demain, 24 Juillet, Mercredi

    Heure Température Précipitation Vent Pression Humidité
    00:00 +21°C° 0 mm 1 m/s 744 mmHg 79%
    01:00 +20°C° 0 mm 1 m/s 744 mmHg 79%
    02:00 +20°C° 0 mm 1 m/s 743 mmHg 80%
    03:00 +18°C° 0 mm 0 m/s 743 mmHg 81%
    04:00 +17°C° 0 mm 0 m/s 743 mmHg 82%
    05:00 +21°C° 0 mm 1 m/s 743 mmHg 78%
    06:00 +22°C° 0 mm 1 m/s 743 mmHg 73%
    07:00 +24°C° 0 mm 1 m/s 743 mmHg 69%
    08:00 +25°C° 0 mm 1 m/s 743 mmHg 64%
    09:00 +27°C° 0 mm 2 m/s 743 mmHg 59%
    10:00 +29°C° 0 mm 2 m/s 743 mmHg 53%
    11:00 +30°C° 0 mm 2 m/s 743 mmHg 51%
    12:00 +31°C° 0 mm 2 m/s 743 mmHg 48%
    13:00 +31°C° 0 mm 2 m/s 742 mmHg 45%
    14:00 +32°C° 0 mm 2 m/s 742 mmHg 44%
    15:00 +32°C° 0 mm 2 m/s 742 mmHg 44%
    16:00 +32°C° 0 mm 2 m/s 742 mmHg 44%
    17:00 +31°C° 0 mm 2 m/s 742 mmHg 49%
    18:00 +29°C° 0 mm 2 m/s 742 mmHg 55%
    19:00 +28°C° 0 mm 2 m/s 741 mmHg 60%
    20:00 +26°C° 0 mm 2 m/s 742 mmHg 63%
    21:00 +25°C° 0 mm 2 m/s 742 mmHg 65%
    22:00 +23°C° 0 mm 1 m/s 742 mmHg 67%
    23:00 +23°C° 0 mm 1 m/s 742 mmHg 68%

    25 Juillet, Jeudi

    Heure Température Précipitation Vent Pression Humidité
    00:00 +22°C° 0 mm 1 m/s 742 mmHg 69%
    01:00 +22°C° 0 mm 1 m/s 742 mmHg 69%
    02:00 +21°C° 0 mm 1 m/s 742 mmHg 70%
    03:00 +21°C° 0 mm 1 m/s 742 mmHg 70%
    04:00 +21°C° 0 mm 1 m/s 742 mmHg 71%
    05:00 +22°C° 0 mm 1 m/s 742 mmHg 68%
    06:00 +23°C° 0 mm 1 m/s 743 mmHg 66%
    07:00 +25°C° 0 mm 1 m/s 743 mmHg 63%
    08:00 +27°C° 0 mm 1 m/s 743 mmHg 58%
    09:00 +28°C° 0 mm 2 m/s 743 mmHg 53%
    10:00 +30°C° 0 mm 2 m/s 743 mmHg 48%
    11:00 +31°C° 0 mm 2 m/s 743 mmHg 46%
    12:00 +33°C° 0 mm 3 m/s 743 mmHg 43%
    13:00 +33°C° 0 mm 3 m/s 743 mmHg 41%
    14:00 +33°C° 0 mm 3 m/s 743 mmHg 41%
    15:00 +33°C° 0 mm 3 m/s 742 mmHg 40%
    16:00 +33°C° 0 mm 3 m/s 742 mmHg 40%
    17:00 +31°C° 0 mm 3 m/s 742 mmHg 46%
    18:00 +29°C° 0 mm 3 m/s 742 mmHg 53%
    19:00 +28°C° 0 mm 2 m/s 742 mmHg 59%
    20:00 +26°C° 0 mm 2 m/s 742 mmHg 62%
    21:00 +25°C° 0 mm 2 m/s 742 mmHg 66%
    22:00 +23°C° 0 mm 2 m/s 742 mmHg 69%
    23:00 +21°C° 0 mm 2 m/s 742 mmHg 71%

    26 Juillet, Vendredi

    Heure Température Précipitation Vent Pression Humidité
    00:00 +20°C° 0 mm 2 m/s 742 mmHg 73%
    01:00 +20°C° 0 mm 2 m/s 742 mmHg 76%
    02:00 +19°C° 0 mm 2 m/s 742 mmHg 80%
    03:00 +20°C° 0 mm 1 m/s 742 mmHg 84%
    04:00 +19°C° 0 mm 1 m/s 742 mmHg 88%
    05:00 +20°C° 0 mm 1 m/s 742 mmHg 83%
    06:00 +20°C° 0 mm 2 m/s 742 mmHg 79%
    07:00 +21°C° 0 mm 2 m/s 742 mmHg 75%
    08:00 +24°C° 0 mm 3 m/s 742 mmHg 71%
    09:00 +25°C° 0 mm 3 m/s 742 mmHg 68%
    10:00 +27°C° 0 mm 4 m/s 743 mmHg 65%
    11:00 +27°C° 0 mm 4 m/s 742 mmHg 61%
    12:00 +28°C° 0 mm 5 m/s 742 mmHg 58%
    13:00 +29°C° 0 mm 5 m/s 742 mmHg 54%
    14:00 +29°C° 0 mm 5 m/s 741 mmHg 52%
    15:00 +29°C° 0 mm 5 m/s 741 mmHg 50%
    16:00 +29°C° 0 mm 5 m/s 741 mmHg 47%
    17:00 +28°C° 0 mm 4 m/s 741 mmHg 52%
    18:00 +27°C° 0 mm 4 m/s 741 mmHg 56%
    19:00 +25°C° 0 mm 3 m/s 740 mmHg 61%
    20:00 +24°C° 0 mm 3 m/s 741 mmHg 63%
    21:00 +21°C° 0 mm 3 m/s 741 mmHg 65%
    22:00 +20°C° 0 mm 3 m/s 741 mmHg 67%
    23:00 +19°C° 0 mm 2 m/s 741 mmHg 70%

    27 Juillet, Samedi

    Heure Température Précipitation Vent Pression Humidité
    00:00 +19°C° 0 mm 2 m/s 741 mmHg 73%
    01:00 +18°C° 0 mm 2 m/s 741 mmHg 75%
    02:00 +17°C° 0 mm 2 m/s 740 mmHg 78%
    03:00 +17°C° 0 mm 2 m/s 740 mmHg 80%
    04:00 +18°C° 0 mm 1 m/s 740 mmHg 83%
    05:00 +18°C° 0 mm 2 m/s 740 mmHg 79%
    06:00 +19°C° 0 mm 2 m/s 740 mmHg 74%
    07:00 +21°C° 0 mm 2 m/s 741 mmHg 70%
    08:00 +22°C° 0 mm 3 m/s 741 mmHg 65%
    09:00 +25°C° 0 mm 4 m/s 741 mmHg 61%
    10:00 +26°C° 0 mm 5 m/s 741 mmHg 56%
    11:00 +27°C° 0 mm 5 m/s 741 mmHg 54%
    12:00 +28°C° 0 mm 5 m/s 740 mmHg 52%
    13:00 +29°C° 0 mm 5 m/s 740 mmHg 50%
    14:00 +29°C° 0 mm 5 m/s 740 mmHg 49%
    15:00 +29°C° 0 mm 5 m/s 740 mmHg 48%
    16:00 +30°C° 0 mm 5 m/s 739 mmHg 47%
    17:00 +28°C° 0 mm 4 m/s 739 mmHg 52%
    18:00 +27°C° 0 mm 3 m/s 739 mmHg 57%
    19:00 +26°C° 0 mm 3 m/s 739 mmHg 62%
    20:00 +25°C° 0 mm 3 m/s 739 mmHg 65%
    21:00 +23°C° 0 mm 2 m/s 740 mmHg 69%
    22:00 +21°C° 0 mm 2 m/s 740 mmHg 73%
    23:00 +20°C° 0 mm 2 m/s 740 mmHg 76%
    Voir plus